Change the Weather History Date:

Tuesday, April 16, 2013

  Actual Average Record
Temperature  
Mean Temperature 77 °F -  
Max Temperature 88 °F 85 °F 98 °F (2014)
Min Temperature 66 °F 68 °F 62 °F (2003)
Cooling Degree Days 12    
Growing Degree Days 27 (Base 50)    
Moisture  
Dew Point 45 °F    
Average Humidity 33    
Maximum Humidity 64    
Minimum Humidity 11    
Precipitation  
Precipitation 0.00 in - - ()
Sea Level Pressure  
Sea Level Pressure 29.80 in    
Wind  
Wind Speed 10 mph ()    
Max Wind Speed 23 mph    
Max Gust Speed -    
Visibility 6.0 miles    
Events      
Averages and records for this station are not official NWS values.
T = Trace of Precipitation, MM = Missing Value Source: Averaged Metar Reports

Daily Weather History Graph

Daily Weather History Graph

Search for Another Location

Airport or City:

Trip Planner

Search our weather history database for the weather conditions in past years. The results will help you decide how hot, cold, wet, or windy it might be!

Date:

Astronomy

Apr. 16, 2013 Rise Set
Actual Time 5:19 AM EET 6:09 PM EET
Civil Twilight 4:55 AM EET 6:33 PM EET
Nautical Twilight 4:27 AM EET 7:01 PM EET
Astronomical Twilight 3:59 AM EET 7:30 PM EET
Moon 9:34 AM EET (4/16) 11:22 PM EET (4/16)
Length of Visible Light 13h 37m
Length of Day
12h 50m
Waxing Crescent, 31% of the Moon is Illuminated
Apr 16
Waxing Crescent
Apr 18
First Quarter
Apr 25
Full
May 2
Last Quarter
May 10
New

Hourly Weather History & Observations

Time (EET) Temp. Heat Index Dew Point Humidity Pressure Visibility Wind Dir Wind Speed Gust Speed Precip Events Conditions
12:00 AM 71.6 °F - 28.4 °F 20% 29.80 in - NW 9.2 mph - N/A   Clear
1:00 AM 71.6 °F - 26.6 °F 19% 29.77 in - NW 9.2 mph - N/A   Clear
2:00 AM 67 °F - 25 °F 11% 29.77 in 6 mi Calm Calm - -  
2:00 AM 68.0 °F - 24.8 °F 20% 29.77 in - Calm Calm - N/A   Clear
3:00 AM 68.0 °F - 33.8 °F 28% 29.77 in - Calm Calm - N/A   Clear
4:00 AM 66.2 °F - 33.8 °F 30% 29.74 in - WNW 11.5 mph - N/A   Clear
5:00 AM 69.8 °F - 57.2 °F 64% 29.77 in - North 17.3 mph - N/A   Clear
6:00 AM 68.0 °F - 50.0 °F 52% 29.80 in - WNW 9.2 mph - N/A   Clear
7:00 AM 71.6 °F - 57.2 °F 60% 29.83 in - WNW 19.6 mph - N/A   Clear
8:00 AM 74 °F - 57 °F 45% 29.85 in 6 mi NW 18.4 mph - -  
8:00 AM 73.4 °F - 57.2 °F 57% 29.83 in - NW 18.4 mph - N/A   Clear
9:00 AM 78.8 °F - 53.6 °F 42% 29.86 in - North 12.7 mph - N/A   Clear
10:00 AM 80.6 °F 80.3 °F 53.6 °F 39% 29.86 in - North 20.7 mph - N/A   Clear
11:00 AM 82.4 °F - 51.8 °F 35% 29.83 in - North 23.0 mph - N/A   Clear
12:00 PM 84.2 °F - 51.8 °F 33% 29.80 in - North 18.4 mph - N/A   Clear
1:00 PM 86.0 °F 84.2 °F 53.6 °F 33% 29.80 in - North 16.1 mph - N/A   Clear
2:00 PM 87 °F - 53 °F 21% 29.78 in 6 mi North 11.5 mph - -  
2:00 PM 87.8 °F 85.7 °F 53.6 °F 31% 29.77 in - North 11.5 mph - N/A   Clear
3:00 PM 87.8 °F - 48.2 °F 25% 29.77 in - North 16.1 mph - N/A   Clear
4:00 PM 86.0 °F - 44.6 °F 23% 29.77 in - NNE 9.2 mph - N/A   Clear
5:00 PM 86.0 °F - 44.6 °F 23% 29.77 in - North 9.2 mph - N/A   Clear
6:00 PM 80.6 °F - 48.2 °F 32% 29.77 in - North 10.4 mph - N/A   Clear
7:00 PM 77.0 °F - 50.0 °F 39% 29.80 in - North 11.5 mph - N/A   Clear
8:00 PM 76 °F - 42 °F 19% 29.82 in 6 mi NNW 17.3 mph - -  
8:00 PM 77.0 °F - 42.8 °F 29% 29.80 in - NNW 17.3 mph - N/A   Clear
9:00 PM 75.2 °F - 37.4 °F 25% 29.83 in - NNW 19.6 mph - N/A   Clear
10:00 PM 73.4 °F - 37.4 °F 27% 29.83 in - WNW 13.8 mph - N/A   Clear
11:00 PM 71.6 °F - 42.8 °F 35% 29.83 in - NW 18.4 mph - N/A   Clear